Current weather by "City, St" or "zip code"  
 

Current Conditions: Sand Springs, William R Pogue Municipal Airport, OK

NULL


60.0 F

Last Updated on Feb 28 2021, 12:55 am CST
Humidity: 97%
Wind Speed: S 5.8 mph
Barometer 29.77 in
Dewpoint: 59.5 F
Visibility: 4.00 mi
Precip: --
Heat Index: NA
Wind Chill: 60 F
Current conditions at:

Sand Springs, William R Pogue Municipal Airport, OK (KOWP)

Lat: 36.1752778 Lon: 96.1518333

Local Radar Image active severe weather and emergency alerts image image weather storm and storm spotter reports image weather observation monitoring service image
Local
Radar
Active
Alerts
Storm Reports Obs
Monitoring

Sign-up For Email & Text Message Weather Alert Notification Services



Advertise Here

Observation History for Sand Springs, William R Pogue Municipal Airport, OK


Time Wind
(mph)
Vis
(mi)
Weather Precip (in) Temperature (F) Relative
Humidity
Wind
Chill
(F)
Heat
Index
(F)
Pressure
Air Dwpt altimeter
(in)
sea level
(mb)
Rmks
12:55 am CST S 5.8 4.00 NULL -- 60.0 59.5 97% 60 NA 29.77 M
12:35 am CST S 5.8 3.00 NULL -- 59.0 58.8 98% 58 NA 29.77 M
11:55 pm CST S 3.5 3.00 NULL -- 59.0 58.3 97% NA NA 29.77 M
10:55 pm CST SE 10.4 0.50 NULL -- 57.0 55.8 97% 55 NA 29.76 M
9:55 pm CST SE 9.2 0.75 NULL -- 56.0 54.5 96% 54 NA 29.78 M
9:35 pm CST SE 8.1 1.00 NULL -- 56.0 54.5 96% 54 NA 29.78 M
8:55 pm CST SE 6.9 2.00 NULL -- 55.0 54.0 95% 53 NA 29.79 M
7:55 pm CST SE 6.9 4.00 NULL -- 56.0 54.0 92% 54 NA 29.79 M
7:35 pm CST SE 9.2 4.00 NULL -- 56.0 53.6 90% 54 NA 29.79 M
6:55 pm CST SE 12.7 G 18.4 10.00 NULL -- 58.0 50.7 78% 55 NA 29.78 M
6:35 pm CST SE 15.0 10.00 NULL -- 58.0 49.8 74% 55 NA 29.78 M
5:55 pm CST SE 10.4 NULL NULL -- 59.0 47.5 67% 57 NA 29.78 M
4:55 pm CST SE 11.5 NULL NULL -- 59.0 46.4 62% 57 NA 29.78 M
3:55 pm CST SE 11.5 10.00 NULL -- 60.0 44.6 58% 58 NA 29.80 M
3:35 pm CST SE 11.5 G 16.1 10.00 NULL -- 59.0 44.4 58% 57 NA 29.81 M
2:55 pm CST SE 10.4 G 19.6 10.00 NULL -- 61.0 43.0 52% 60 NA 29.80 M
2:35 pm CST SE 15.0 G 20.7 10.00 NULL -- 62.0 42.4 50% 60 NA 29.81 M
1:55 pm CST SE 17.3 G 20.7 10.00 NULL -- 62.0 41.9 47% 60 NA 29.82 M
12:55 pm CST SE 12.7 G 21.9 10.00 NULL -- 62.0 44.6 54% 60 NA 29.86 M
11:55 am CST SE 12.7 10.00 NULL -- 58.0 47.3 67% 55 NA 29.91 M
11:35 am CST SE 10.4 G 17.3 10.00 NULL -- 56.0 48.9 78% 53 NA 29.92 M
10:55 am CST SE 12.7 10.00 NULL -- 53.0 52.0 97% 49 NA 29.93 M
9:55 am CST SE 10.4 1.75 NULL -- 47.0 46.6 97% 42 NA 29.95 M
9:35 am CST SE 10.4 0.75 NULL -- 46.0 45.5 97% 41 NA 29.96 M

Regional Weather Observation


Bartlesville, Bartlesville Municipal Airport, OK (KBVO)

Fog/Mist
54.0 F

Tulsa - Jones Jr. Airport, OK (KRVS)

Overcast
58.0 F

Tulsa, Tulsa International Airport, OK (KTUL)

Overcast
57.0 F

Cushing, Cushing Municipal Airport, OK (KCUH)

Fog/Mist
57.0 F

Claremore, Claremore Regional Airport, OK (KGCM)

Fog/Mist
54.0 F

Stillwater, Stillwater Regional Airport, OK (KSWO)

Fog/Mist
59.0 F

Advertise Here


Advertise Here